When you browse on this site, cookies collect data to enhance your experience and personalize the content and advertising you see.
Visit our Privacy Policy to learn more. By continuing to use the site, you agree to this use of cookies and data.
  • In Latvia
  • List of Countries
  • For 7 days
  • Water Temperature
  • Weather Map
  • Weather Widgets
  • user-avatar
    Login

    Hourly Weather Molodycz

    Today, 19 September, Thursday

    Time Temperature Precipitation Wind Pressure Humidity
    00:00 +6°C° 0 mm 4 mps 748 mmHg 76%
    01:00 +6°C° 0 mm 4 mps 748 mmHg 78%
    02:00 +5°C° 0 mm 3 mps 748 mmHg 78%
    03:00 +5°C° 0 mm 3 mps 748 mmHg 82%
    04:00 +5°C° 0 mm 3 mps 748 mmHg 85%
    05:00 +4°C° 0 mm 3 mps 748 mmHg 89%
    06:00 +5°C° 0.1 mm 4 mps 748 mmHg 88%
    07:00 +6°C° 0.1 mm 4 mps 748 mmHg 86%
    08:00 +7°C° 0.1 mm 4 mps 748 mmHg 85%
    09:00 +8°C° 0 mm 5 mps 749 mmHg 76%
    10:00 +10°C° 0 mm 5 mps 749 mmHg 68%
    11:00 +12°C° 0 mm 5 mps 749 mmHg 59%
    12:00 +13°C° 0 mm 5 mps 749 mmHg 56%
    13:00 +14°C° 0 mm 5 mps 748 mmHg 53%
    14:00 +15°C° 0 mm 5 mps 748 mmHg 49%
    15:00 +14°C° 0 mm 5 mps 748 mmHg 50%
    16:00 +14°C° 0 mm 4 mps 748 mmHg 51%
    17:00 +14°C° 0 mm 4 mps 748 mmHg 52%
    18:00 +12°C° 0.1 mm 4 mps 748 mmHg 61%
    19:00 +10°C° 0.1 mm 3 mps 749 mmHg 70%
    20:00 +8°C° 0.1 mm 2 mps 749 mmHg 79%
    21:00 +8°C° 0.2 mm 3 mps 749 mmHg 82%
    22:00 +7°C° 0.2 mm 3 mps 749 mmHg 85%
    23:00 +7°C° 0.2 mm 3 mps 749 mmHg 88%

    Tomorrow, 20 September, Friday

    Time Temperature Precipitation Wind Pressure Humidity
    00:00 +7°C° 0.3 mm 3 mps 749 mmHg 90%
    01:00 +5°C° 0.3 mm 3 mps 750 mmHg 91%
    02:00 +5°C° 0.3 mm 3 mps 750 mmHg 93%
    03:00 +5°C° 0 mm 3 mps 750 mmHg 93%
    04:00 +4°C° 0 mm 3 mps 750 mmHg 94%
    05:00 +4°C° 0 mm 3 mps 750 mmHg 95%
    06:00 +4°C° 0 mm 3 mps 750 mmHg 93%
    07:00 +5°C° 0 mm 4 mps 750 mmHg 91%
    08:00 +6°C° 0 mm 4 mps 750 mmHg 89%
    09:00 +7°C° 0 mm 4 mps 751 mmHg 80%
    10:00 +9°C° 0 mm 5 mps 751 mmHg 70%
    11:00 +10°C° 0 mm 5 mps 751 mmHg 60%
    12:00 +12°C° 0.1 mm 5 mps 751 mmHg 55%
    13:00 +13°C° 0.1 mm 5 mps 751 mmHg 51%
    14:00 +14°C° 0.1 mm 5 mps 751 mmHg 47%
    15:00 +13°C° 0.1 mm 5 mps 751 mmHg 49%
    16:00 +13°C° 0.1 mm 4 mps 751 mmHg 51%
    17:00 +13°C° 0.1 mm 4 mps 751 mmHg 53%
    18:00 +11°C° 0 mm 3 mps 751 mmHg 59%
    19:00 +9°C° 0 mm 2 mps 751 mmHg 65%
    20:00 +8°C° 0 mm 2 mps 751 mmHg 71%
    21:00 +7°C° 0 mm 2 mps 751 mmHg 73%
    22:00 +7°C° 0 mm 2 mps 751 mmHg 74%
    23:00 +7°C° 0 mm 1 mps 752 mmHg 76%

    Day after tomorrow, 21 September, Saturday

    Time Temperature Precipitation Wind Pressure Humidity
    00:00 +6°C° 0 mm 2 mps 752 mmHg 77%
    01:00 +6°C° 0 mm 2 mps 751 mmHg 79%
    02:00 +6°C° 0 mm 2 mps 751 mmHg 80%
    03:00 +5°C° 0 mm 2 mps 751 mmHg 81%
    04:00 +5°C° 0 mm 2 mps 751 mmHg 82%
    05:00 +5°C° 0 mm 2 mps 751 mmHg 84%
    06:00 +5°C° 0 mm 3 mps 751 mmHg 80%
    07:00 +7°C° 0 mm 3 mps 751 mmHg 76%
    08:00 +8°C° 0 mm 3 mps 751 mmHg 72%
    09:00 +10°C° 0 mm 3 mps 751 mmHg 66%
    10:00 +12°C° 0 mm 4 mps 751 mmHg 59%
    11:00 +14°C° 0 mm 4 mps 751 mmHg 52%
    12:00 +15°C° 0 mm 4 mps 751 mmHg 50%
    13:00 +16°C° 0 mm 5 mps 750 mmHg 48%
    14:00 +17°C° 0 mm 5 mps 750 mmHg 46%
    15:00 +17°C° 0 mm 4 mps 749 mmHg 48%
    16:00 +17°C° 0 mm 4 mps 749 mmHg 50%
    17:00 +17°C° 0 mm 3 mps 749 mmHg 53%
    18:00 +14°C° 0 mm 3 mps 749 mmHg 57%
    19:00 +13°C° 0 mm 3 mps 749 mmHg 61%
    20:00 +12°C° 0 mm 2 mps 749 mmHg 66%
    21:00 +10°C° 0 mm 2 mps 749 mmHg 66%
    22:00 +10°C° 0 mm 2 mps 749 mmHg 67%
    23:00 +9°C° 0 mm 3 mps 749 mmHg 67%

    22 September, Sunday

    Time Temperature Precipitation Wind Pressure Humidity
    00:00 +9°C° 0 mm 2 mps 749 mmHg 67%
    01:00 +9°C° 0 mm 2 mps 749 mmHg 67%
    02:00 +9°C° 0 mm 2 mps 748 mmHg 66%
    03:00 +8°C° 0 mm 2 mps 748 mmHg 67%
    04:00 +8°C° 0 mm 2 mps 748 mmHg 68%
    05:00 +8°C° 0 mm 2 mps 748 mmHg 69%
    06:00 +9°C° 0 mm 2 mps 748 mmHg 67%
    07:00 +11°C° 0 mm 1 mps 748 mmHg 65%
    08:00 +12°C° 0 mm 1 mps 748 mmHg 62%
    09:00 +14°C° 0 mm 2 mps 748 mmHg 56%
    10:00 +16°C° 0 mm 2 mps 748 mmHg 50%
    11:00 +18°C° 0 mm 2 mps 748 mmHg 44%
    12:00 +19°C° 0 mm 2 mps 747 mmHg 42%
    13:00 +20°C° 0 mm 2 mps 747 mmHg 40%
    14:00 +22°C° 0 mm 1 mps 746 mmHg 38%
    15:00 +22°C° 0 mm 1 mps 746 mmHg 41%
    16:00 +21°C° 0 mm 1 mps 745 mmHg 45%
    17:00 +21°C° 0 mm 1 mps 745 mmHg 48%
    18:00 +18°C° 0 mm 2 mps 745 mmHg 52%
    19:00 +16°C° 0 mm 2 mps 745 mmHg 55%
    20:00 +14°C° 0 mm 2 mps 745 mmHg 59%
    21:00 +13°C° 0 mm 2 mps 744 mmHg 61%
    22:00 +13°C° 0 mm 2 mps 744 mmHg 63%
    23:00 +11°C° 0 mm 3 mps 744 mmHg 66%

    23 September, Monday

    Time Temperature Precipitation Wind Pressure Humidity
    00:00 +11°C° 0 mm 3 mps 744 mmHg 64%
    01:00 +11°C° 0 mm 3 mps 744 mmHg 62%
    02:00 +11°C° 0 mm 3 mps 743 mmHg 60%
    03:00 +12°C° 0 mm 3 mps 743 mmHg 61%
    04:00 +12°C° 0 mm 3 mps 743 mmHg 61%
    05:00 +13°C° 0 mm 3 mps 742 mmHg 62%
    06:00 +13°C° 0 mm 3 mps 742 mmHg 67%
    07:00 +13°C° 0 mm 3 mps 742 mmHg 73%
    08:00 +13°C° 0 mm 3 mps 741 mmHg 79%
    09:00 +13°C° 0.1 mm 3 mps 741 mmHg 81%
    10:00 +13°C° 0.1 mm 3 mps 741 mmHg 82%
    11:00 +13°C° 0.1 mm 3 mps 741 mmHg 84%
    12:00 +14°C° 0 mm 3 mps 740 mmHg 80%
    13:00 +17°C° 0 mm 3 mps 740 mmHg 76%
    14:00 +18°C° 0 mm 3 mps 740 mmHg 73%
    15:00 +18°C° 0 mm 3 mps 739 mmHg 72%
    16:00 +18°C° 0 mm 3 mps 739 mmHg 72%
    17:00 +18°C° 0 mm 3 mps 739 mmHg 71%
    18:00 +17°C° 0 mm 3 mps 739 mmHg 75%
    19:00 +16°C° 0 mm 3 mps 739 mmHg 78%
    20:00 +14°C° 0 mm 3 mps 739 mmHg 81%
    21:00 +13°C° 0 mm 3 mps 738 mmHg 81%
    22:00 +13°C° 0 mm 4 mps 738 mmHg 81%
    23:00 +13°C° 0 mm 4 mps 738 mmHg 81%

    24 September, Tuesday

    Time Temperature Precipitation Wind Pressure Humidity
    00:00 +13°C° 0 mm 4 mps 738 mmHg 79%
    01:00 +14°C° 0 mm 4 mps 738 mmHg 77%
    02:00 +14°C° 0 mm 4 mps 738 mmHg 75%
    03:00 +13°C° 0 mm 4 mps 738 mmHg 79%
    04:00 +13°C° 0 mm 4 mps 738 mmHg 83%
    05:00 +12°C° 0 mm 4 mps 738 mmHg 87%
    06:00 +13°C° 0 mm 4 mps 738 mmHg 88%
    07:00 +13°C° 0 mm 4 mps 738 mmHg 89%
    08:00 +13°C° 0 mm 4 mps 738 mmHg 89%
    09:00 +14°C° 0 mm 4 mps 738 mmHg 88%
    10:00 +14°C° 0 mm 4 mps 739 mmHg 86%
    11:00 +14°C° 0 mm 3 mps 739 mmHg 85%
    12:00 +16°C° 0 mm 3 mps 739 mmHg 82%
    13:00 +16°C° 0 mm 3 mps 739 mmHg 79%
    14:00 +17°C° 0 mm 3 mps 739 mmHg 77%
    15:00 +15°C° 0.1 mm 4 mps 739 mmHg 79%
    16:00 +15°C° 0.1 mm 4 mps 739 mmHg 81%
    17:00 +15°C° 0.1 mm 4 mps 739 mmHg 83%
    18:00 +15°C° 0.1 mm 4 mps 739 mmHg 85%
    19:00 +14°C° 0.1 mm 4 mps 739 mmHg 87%
    20:00 +14°C° 0.1 mm 4 mps 740 mmHg 90%
    21:00 +13°C° 0.2 mm 3 mps 740 mmHg 91%
    22:00 +13°C° 0.2 mm 3 mps 740 mmHg 93%
    23:00 +14°C° 0.2 mm 2 mps 740 mmHg 95%
    Show more